Weather in Beni Suef

Egypt     29°04′21″N   31°06′07″E
temp.,
°C
wind,
m/s
gust,
m/s
humid.,
%
clouds,
%
prec.,
mm/h
press.,
hPa
HPBL,
m
26 june, sun
sun2623:00+28n811350 0.0 1010720
02:00+25n59510 0.0 1010505
05:00+23n48600 0.0 1011351
08:00+27n67440 0.0 1012877
11:00+33n56220 0.0 10101444
14:00+37n67150 0.0 10082003
17:00+38nne59150 0.0 10072469
20:00+33n913230 0.0 1009724
27 june, mon
mon2723:00+29n611330 0.0 1010482
02:00+27n59420 0.0 1010343
05:00+25n48500 0.0 1010251
08:00+29n57380 0.0 1011655
11:00+36nnw67230 0.0 10101832
14:00+38nw89160 0.0 10082698
17:00+37nnw109160 0.0 10072672
20:00+32nnw811240 0.0 1009556
28 june, tue
tue2823:00+28n59380 0.0 1009349
02:00+25n48520 0.0 1009334
05:00+23n36650 0.0 1008215
08:00+27nnw34480 0.0 1009729
11:00+33nw55270 0.0 10081442
14:00+37nw66190 0.0 10062278
17:00+37nw66180 0.0 10052667
20:00+32nnw912320 0.0 1007596
29 june, wed
wed2923:00+28nnw710490 0.0 1009625
02:00+25nnw57640 0.0 1008340
05:00+23nnw36750 0.0 1008236
08:00+27nnw33560 0.0 1008706
11:00+32wnw34310 0.0 10081525
14:00+36wnw55220 0.0 10062207
17:00+36nw55200 0.0 10052774
20:00+33nnw34260 0.0 100655
30 june, thu
thu3023:00+29n610420 0.0 1007648
02:00+27nnw35500 0.0 1007217
05:00+26nnw35570 0.0 1007137
08:00+29nnw44480 0.0 1008731
11:00+34wnw45300 0.0 10071720
14:00+37nw55210 0.0 10062508
17:00+37nnw65200 0.0 10052695
20:00+33nw47240 0.0 1006135